Concord, CA

7:02 AM PDT on July 24, 2017 (GMT -0700)
Buchanan

Weather History for KCCR - March, 2014

Change the Weather History Date:

Monday, March 3, 2014

  Actual Average Record
Temperature  
Mean Temperature 54 °F 54 °F  
Max Temperature 60 °F 65 °F 69 °F (2012)
Min Temperature 48 °F 45 °F 37 °F (2002)
Degree Days  
Heating Degree Days 11    
Month to date heating degree days 28  
Since 1 July heating degree days 1774  
Cooling Degree Days 0    
Month to date cooling degree days 0  
Year to date cooling degree days 0  
Growing Degree Days 4 (Base 50)    
Moisture  
Dew Point 49 °F    
Average Humidity 80    
Maximum Humidity 100    
Minimum Humidity 60    
Precipitation  
Precipitation 0.10 in - 0.75 in (2009)
Month to date precipitation 0.13  
Year to date precipitation 4.72  
Since 1 July precipitation 7.20  
Sea Level Pressure  
Sea Level Pressure 30.07 in    
Wind  
Wind Speed 5 mph (SSE)    
Max Wind Speed 13 mph    
Max Gust Speed 18 mph    
Visibility 10 miles    
Events Rain    
T = Trace of Precipitation, MM = Missing Value Source: NWS Daily Summary

Daily Weather History Graph

Daily Weather History Graph

Search for Another Location

Airport or City:

Trip Planner

Search our weather history database for the weather conditions in past years. The results will help you decide how hot, cold, wet, or windy it might be!

Date:

Astronomy

Mar. 03, 2014 Rise Set
Actual Time 6:36 AM PST 6:03 PM PST
Civil Twilight 6:10 AM PST 6:30 PM PST
Nautical Twilight 5:40 AM PST 7:00 PM PST
Astronomical Twilight 5:09 AM PST 7:31 PM PST
Moon 7:51 AM PST (3/3) 9:09 PM PST (3/3)
Length of Visible Light 12h 19m
Length of Day
11h 26m
Waxing Crescent, 8% of the Moon is Illuminated
Mar 3
Waxing Crescent
Mar 8
First Quarter
Mar 16
Full
Mar 23
Last Quarter
Mar 30
New

Hourly Weather History & Observations

Time (PST) Temp. Dew Point Humidity Pressure Visibility Wind Dir Wind Speed Gust Speed Precip Events Conditions
12:53 AM 48.9 °F 48.0 °F 97% 30.12 in 10.0 mi South 5.8 mph - N/A   Clear
1:53 AM 48.0 °F 46.9 °F 96% 30.12 in 9.0 mi SE 3.5 mph - N/A   Clear
2:53 AM 48.0 °F 46.9 °F 96% 30.11 in 10.0 mi Calm Calm - N/A   Scattered Clouds
3:53 AM 48.9 °F 48.0 °F 97% 30.10 in 10.0 mi ESE 3.5 mph - N/A   Overcast
4:53 AM 48.9 °F 46.9 °F 93% 30.09 in 10.0 mi ESE 3.5 mph - N/A   Mostly Cloudy
5:53 AM 51.1 °F 46.9 °F 86% 30.09 in 10.0 mi South 8.1 mph - N/A   Overcast
6:53 AM 51.1 °F 46.9 °F 86% 30.09 in 10.0 mi South 4.6 mph - N/A   Overcast
7:53 AM 51.1 °F 48.0 °F 89% 30.09 in 10.0 mi ESE 4.6 mph - N/A   Overcast
8:53 AM 53.1 °F 48.0 °F 83% 30.10 in 10.0 mi SSE 4.6 mph - N/A   Overcast
9:53 AM 55.0 °F 48.0 °F 77% 30.11 in 10.0 mi SSE 4.6 mph - N/A   Overcast
10:53 AM 55.9 °F 46.9 °F 72% 30.09 in 10.0 mi SW 4.6 mph - N/A   Overcast
11:53 AM 57.9 °F 46.9 °F 67% 30.08 in 10.0 mi SSW 4.6 mph - N/A   Overcast
12:53 PM 59.0 °F 46.9 °F 64% 30.07 in 10.0 mi SSW 8.1 mph - 0.00 in   Overcast
1:53 PM 60.1 °F 46.0 °F 60% 30.06 in 10.0 mi SW 6.9 mph - N/A   Overcast
2:53 PM 60.1 °F 46.9 °F 62% 30.04 in 10.0 mi South 6.9 mph - N/A   Mostly Cloudy
3:53 PM 60.1 °F 48.0 °F 64% 30.04 in 10.0 mi SSW 4.6 mph - N/A   Overcast
4:53 PM 59.0 °F 48.0 °F 67% 30.04 in 10.0 mi West 3.5 mph - N/A   Overcast
5:53 PM 57.0 °F 51.1 °F 81% 30.03 in 10.0 mi Calm Calm - 0.01 in Rain Light Rain
6:53 PM 55.0 °F 52.0 °F 89% 30.03 in 10.0 mi ESE 3.5 mph - 0.01 in Rain Light Rain
7:53 PM 55.0 °F 52.0 °F 89% 30.04 in 10.0 mi SSE 4.6 mph - 0.02 in Rain Light Rain
8:53 PM 54.0 °F 53.1 °F 97% 30.06 in 8.0 mi North 3.5 mph - 0.02 in Rain Light Rain
9:53 PM 53.1 °F 52.0 °F 96% 30.06 in 10.0 mi NE 4.6 mph - 0.03 in Rain Light Rain
10:53 PM 53.1 °F 48.9 °F 86% 30.01 in 10.0 mi SSE 9.2 mph - 0.01 in   Overcast
11:53 PM 53.1 °F 51.1 °F 93% 30.05 in 10.0 mi North 3.5 mph - N/A   Overcast